Theta_e
348 353 354 356 354 350 347 341 340 344 346 344 343 344 344 342 340 339 337 337 337 331 331 332 331 329 328 329 329 330 330 332 332 332 334 336 334 340 342 343 343 342 340
346 352 352 355 353 350 350 342 343 348 345 344 343 342 335 336 336 335 335 334 327 329 326 328 325 322 315 325 325 327 327 328 328 329 329 330 333 335 337 338 339 339 340
347 353 354 353 348 349 347 345 347 346 345 343 340 338 336 336 332 323 320 321 322 320 316 318 315 313 314 313 318 322 322 322 323 324 325 326 328 331 332 331 335 336 337
350 342 346 343 343 347 343 346 346 345 342 341 339 337 336 322 317 320 321 318 311 310 310 313 312 312 312 312 319 320 321 319 322 322 322 323 323 325 325 326 327 328 329
339 343 343 340 340 343 336 341 340 341 341 340 339 335 320 318 317 315 310 310 311 312 311 314 311 311 311 311 311 311 312 319 320 319 321 321 321 321 322 323 325 325 325
337 336 338 342 343 337 336 340 340 340 340 340 336 323 317 316 310 310 311 311 311 311 311 314 313 308 308 308 309 309 309 309 311 316 318 319 321 319 321 319 319 322 324
337 336 335 340 338 335 336 339 340 341 340 337 325 318 316 310 311 311 310 313 313 308 307 309 312 306 306 306 307 310 313 310 309 311 315 316 316 316 315 318 319 319 322
340 337 341 341 338 332 338 340 340 340 337 327 319 316 310 310 310 308 307 307 307 307 307 307 307 307 306 306 308 313 314 313 308 309 310 311 310 310 311 313 315 318 319
339 336 340 337 333 340 340 338 339 338 329 321 317 310 310 309 308 307 311 314 311 308 309 309 309 310 310 310 309 312 312 310 311 311 312 312 312 312 311 313 315 314 315
340 336 336 341 338 337 339 339 339 334 324 318 313 309 309 308 308 308 312 315 315 315 315 313 312 312 312 312 312 314 314 311 312 313 314 314 314 314 313 314 314 314 314
340 338 338 340 337 340 340 339 335 326 320 317 310 309 309 309 309 309 309 312 314 315 315 315 315 313 313 313 313 313 312 312 313 312 312 313 312 312 312 313 314 313 313
341 341 339 338 341 342 340 335 329 320 318 312 309 311 310 309 310 309 309 311 312 313 316 315 315 314 313 312 312 313 314 313 314 313 312 312 312 312 312 312 312 313 313
341 340 342 340 342 340 335 330 319 318 317 314 314 315 314 313 311 310 311 312 312 313 314 314 314 314 313 314 315 315 315 315 315 314 312 312 312 312 313 312 312 312 312
343 344 342 341 338 333 327 319 323 320 316 314 314 315 315 315 315 315 315 315 316 316 316 315 314 316 316 317 317 317 317 316 315 314 313 313 312 312 312 313 312 312 311
342 341 340 337 332 324 324 323 320 317 314 314 315 315 316 316 316 315 314 314 314 314 314 315 317 318 317 317 317 317 316 315 315 314 312 312 312 312 312 313 312 312 311
340 339 334 330 325 323 320 314 312 313 310 311 314 314 316 314 313 312 313 313 313 314 314 316 318 319 319 317 317 316 315 314 313 312 311 312 312 312 312 312 312 312 312
339 335 329 325 322 319 318 317 314 310 312 313 313 313 313 314 313 312 313 313 314 315 316 318 319 319 318 317 316 314 313 311 310 310 311 312 312 311 311 312 312 311 311
332 329 324 322 320 319 318 318 315 313 314 314 314 313 314 314 313 313 313 314 315 317 318 318 318 318 316 315 313 310 309 309 309 309 310 310 311 310 310 311 311 310 311
328 323 323 321 320 319 317 314 318 318 316 316 316 316 314 313 313 314 315 317 319 319 318 319 318 316 314 310 308 308 307 307 307 308 309 309 309 309 309 310 310 310 310
324 324 322 318 314 318 318 318 317 315 316 317 317 317 317 316 317 317 318 318 318 319 319 318 315 312 308 307 306 306 306 306 307 307 308 308 308 307 307 309 310 310 310
323 318 318 318 317 318 317 316 317 318 318 317 317 317 316 316 316 317 318 319 320 320 318 315 311 307 306 305 305 304 305 306 307 307 307 307 307 306 307 309 310 309 309
320 317 316 316 317 317 317 317 318 318 318 318 318 318 317 317 318 319 319 319 319 317 314 309 306 305 304 303 302 302 303 303 302 302 302 303 305 306 307 308 308 309 309
318 317 316 317 317 318 318 318 318 318 318 318 318 318 318 318 319 319 319 318 317 314 309 306 304 303 302 301 301 301 300 300 298 296 296 297 300 303 304 306 308 309 309
317 317 317 318 318 319 319 319 319 317 316 317 318 318 319 319 319 319 318 317 314 310 307 304 303 303 302 301 301 300 299 297 296 296 296 296 299 301 304 306 308 308 309
317 317 318 318 319 319 320 318 319 319 318 319 319 319 319 319 319 319 318 316 311 309 305 304 303 303 302 302 301 300 297 297 297 297 296 296 303 306 306 307 308 308 308
318 318 318 319 320 320 319 319 318 318 318 318 318 319 319 320 320 318 317 313 310 306 304 304 303 303 303 303 302 300 297 297 297 297 296 298 304 306 305 306 307 308 309
Wind_Speed
18 14 14 13 12 13 14 12 10 8 4 2 2 2 4 6 7 8 9 10 9 9 8 9 10 11 10 10 9 10 9 10 13 16 15 15 14 13 14 15 14 18 14
19 15 14 14 12 12 13 13 11 7 4 3 4 5 8 10 9 9 8 8 10 8 9 9 10 11 11 12 10 11 10 11 12 16 15 15 16 14 16 16 14 14 16
16 13 13 13 13 14 12 13 11 8 5 7 7 7 9 11 10 11 10 8 9 10 11 10 13 13 13 12 11 11 10 11 11 13 15 14 15 13 16 15 14 14 14
16 14 16 14 15 15 14 13 11 11 9 7 7 7 10 11 8 7 8 9 9 9 9 8 10 12 13 13 11 12 12 12 11 11 12 12 12 13 14 15 17 16 17
6 14 17 18 22 20 17 17 15 13 11 6 6 7 8 6 6 6 8 7 6 7 8 8 11 12 13 14 14 14 14 12 12 13 12 12 13 15 14 16 17 18 19
21 22 16 16 25 22 24 20 18 16 8 5 8 7 7 7 6 4 3 4 7 9 10 11 13 14 14 15 16 16 17 17 14 13 14 16 16 18 17 18 21 20 20
10 10 15 22 21 23 24 20 20 10 6 7 5 5 4 3 3 6 9 9 9 11 11 11 10 13 13 12 13 14 16 20 19 16 15 14 17 18 20 20 21 22 22
11 12 18 23 25 27 22 21 14 9 7 4 4 3 1 6 9 8 9 8 8 10 11 13 14 16 17 17 14 12 13 13 18 16 16 17 17 18 18 19 21 24 24
14 18 18 24 25 22 21 13 12 9 7 2 1 2 5 6 7 5 9 6 7 10 11 13 15 16 18 20 18 16 16 18 15 19 23 22 20 19 20 16 16 19 23
17 20 22 22 22 19 16 15 11 10 7 4 5 8 8 6 6 4 6 3 5 4 7 11 14 17 19 21 21 16 17 23 15 15 14 15 15 14 18 16 16 18 21
17 20 21 21 21 21 17 13 13 11 6 7 9 10 9 5 3 2 3 5 3 5 7 9 10 18 19 20 21 21 23 26 16 17 16 15 14 14 15 15 16 16 18
19 23 23 23 22 19 15 16 12 9 10 10 11 10 7 6 3 1 2 2 4 6 8 10 13 18 18 18 19 21 22 23 15 19 18 17 17 17 17 16 16 17 20
23 25 22 20 20 16 15 12 12 12 11 12 11 8 7 5 3 1 1 4 7 10 11 15 17 16 18 19 21 23 23 16 18 21 21 18 18 18 19 19 19 19 18
23 24 23 19 17 16 13 11 11 11 11 11 11 9 7 6 5 4 5 7 10 14 17 18 19 19 20 20 21 20 20 21 21 21 22 21 20 19 19 19 21 22 23
25 22 19 17 15 15 12 10 8 9 9 10 10 8 7 6 6 8 6 8 10 14 19 20 17 18 19 19 20 21 21 20 22 24 24 23 21 20 20 19 21 22 24
25 21 17 17 15 13 12 12 10 9 13 14 13 11 7 9 8 8 8 10 14 18 21 18 18 20 22 23 23 24 23 23 23 24 22 20 20 21 21 20 20 21 23
19 19 18 15 14 13 10 9 10 13 12 10 10 12 10 8 8 9 10 13 16 19 18 17 19 23 24 24 25 25 25 24 24 21 21 20 20 21 21 21 21 22 24
17 19 17 15 14 12 10 10 9 9 9 9 9 9 10 10 9 10 12 17 17 17 18 19 21 23 24 25 25 25 23 22 21 20 21 19 19 20 21 21 21 21 24
16 16 15 14 14 12 11 10 6 9 10 8 7 10 8 9 9 12 15 17 15 17 17 19 21 22 24 25 23 22 21 21 21 20 19 19 20 20 20 20 21 22 25
16 18 16 13 13 10 9 10 8 6 6 8 8 6 5 6 9 12 13 15 16 18 18 19 21 22 23 21 21 20 20 20 19 19 19 19 19 19 19 19 20 23 25
14 16 15 12 12 12 9 8 7 7 6 5 6 6 8 9 12 14 15 14 16 16 16 18 20 20 19 19 18 19 19 18 18 18 18 18 19 18 17 18 20 22 26
15 14 13 13 12 10 8 8 8 6 6 6 6 6 8 10 10 10 13 14 13 12 15 17 18 17 17 16 17 17 17 17 17 18 19 18 17 17 17 18 20 22 25
15 14 14 13 11 10 8 9 7 7 7 7 7 7 9 10 10 12 14 12 11 13 15 18 17 15 15 16 15 15 16 17 19 23 23 20 19 18 17 18 20 22 25
14 15 14 11 10 8 7 7 6 6 8 8 7 9 9 9 11 13 11 10 11 14 16 15 14 16 17 15 14 14 15 23 25 24 24 23 20 17 17 18 18 23 23
14 15 13 10 8 8 7 6 4 3 5 6 8 9 10 11 13 12 11 10 12 16 15 14 13 14 14 17 15 15 23 23 23 23 22 21 19 15 15 17 18 23 22
13 12 10 10 9 9 7 5 5 5 6 7 9 10 11 14 14 12 10 10 12 14 13 12 13 15 16 14 16 24 23 22 22 22 21 19 16 14 16 18 19 20 23
Wind_Direction
199 200 192 187 191 194 189 189 187 192 200 273 313 324 327 331 324 327 335 325 340 345 3 357 354 352 346 339 342 331 329 323 316 311 315 319 319 324 310 309 316 315 312
196 202 191 187 188 195 184 178 186 196 217 272 307 298 316 316 320 319 322 320 338 349 349 354 343 345 346 341 344 330 330 327 311 312 314 320 320 318 313 313 315 301 299
184 193 193 197 193 189 188 182 183 202 225 271 295 303 311 317 319 324 324 335 336 336 338 350 349 354 350 347 351 343 336 331 323 311 319 318 314 322 311 317 307 302 306
186 202 196 194 200 188 189 192 195 215 248 265 269 292 313 321 328 334 334 331 331 340 352 1 360 358 356 357 357 350 340 351 335 334 325 323 323 316 323 318 310 309 302
188 209 210 220 229 191 204 210 228 237 238 250 276 300 317 325 327 331 330 333 354 12 21 41 29 26 25 18 16 8 6 358 349 347 339 334 327 329 331 320 316 312 312
255 243 219 214 185 189 207 221 230 239 238 251 283 309 318 319 328 342 4 48 70 71 61 49 36 35 36 32 27 22 20 12 1 347 342 333 331 331 325 325 321 322 316
232 216 193 189 208 203 208 220 231 228 242 259 280 312 318 329 48 79 93 84 73 65 58 57 50 38 29 21 18 18 11 7 6 1 336 333 326 321 318 318 316 312 307
189 178 165 177 179 196 210 219 224 227 227 246 307 319 47 104 101 96 86 73 65 63 55 48 44 38 31 28 26 19 16 5 360 1 350 341 339 334 328 317 318 316 316
183 174 168 175 184 197 208 211 221 217 211 224 221 138 139 126 108 93 97 83 59 48 43 38 35 28 21 20 22 15 9 360 354 358 360 359 356 352 347 345 328 325 318
185 184 181 180 191 203 205 212 211 206 208 198 169 155 149 140 114 97 102 88 60 22 7 2 14 7 3 4 5 360 359 354 351 354 353 350 348 345 350 342 337 329 322
173 180 181 181 195 200 203 205 196 188 192 187 172 167 160 153 137 103 65 70 33 357 344 340 332 342 345 347 350 353 347 347 355 341 336 335 340 345 344 339 334 331 322
166 164 170 185 191 198 205 192 191 196 190 180 171 163 172 176 173 148 70 46 12 348 324 326 323 330 331 336 338 341 336 336 338 331 328 320 320 325 328 331 331 330 325
166 173 178 187 195 196 186 190 190 180 173 168 173 176 187 197 212 161 358 340 331 335 332 327 331 330 329 329 329 330 328 327 318 321 317 314 312 313 319 322 319 318 327
166 170 173 174 177 171 168 174 174 175 171 173 182 187 202 212 223 241 286 312 323 335 332 320 329 332 327 323 330 327 321 313 309 312 313 307 309 311 310 314 315 318 324
166 167 168 169 160 164 160 167 180 179 178 185 191 196 211 223 235 248 273 298 311 314 323 327 326 324 325 324 322 321 318 314 309 308 306 303 303 304 306 311 313 315 316
160 160 159 158 160 160 168 178 185 192 183 189 202 201 209 227 242 260 279 306 316 317 316 317 319 323 322 320 321 321 317 313 309 304 303 301 299 303 304 306 312 313 313
160 162 159 157 159 161 162 166 174 177 186 193 214 224 230 243 261 259 279 299 309 313 321 315 312 318 319 318 318 317 315 312 310 310 304 303 301 302 303 304 307 311 314
152 160 154 161 162 163 169 181 183 179 199 215 227 240 241 259 262 265 290 302 316 311 314 311 315 317 316 316 317 315 313 312 312 308 304 303 302 301 301 301 302 309 312
157 154 158 164 165 168 175 178 175 196 210 231 244 252 251 261 263 283 296 305 305 310 313 314 317 316 316 317 315 316 314 313 311 312 311 306 303 301 299 297 304 311 312
159 169 165 166 174 171 169 187 193 207 233 233 233 244 243 262 279 287 299 304 304 308 312 315 318 318 318 319 319 317 317 316 316 313 309 306 303 298 297 300 307 311 315
164 169 163 165 167 170 169 177 196 222 218 224 239 243 249 274 295 304 309 308 309 308 311 317 319 320 320 318 319 319 320 321 320 316 315 309 306 305 304 305 306 311 315
163 169 164 166 168 170 182 198 206 217 230 249 263 255 287 292 296 308 312 312 309 309 317 318 322 321 321 321 323 323 324 323 322 320 318 314 311 309 306 305 308 314 318
168 171 167 172 175 186 196 196 221 244 251 261 271 285 299 302 309 310 312 307 309 317 319 323 323 321 320 323 326 323 323 321 321 325 325 320 314 310 305 308 311 314 322
172 172 173 176 183 189 203 222 235 249 263 279 271 285 296 302 304 308 306 302 311 318 322 320 320 322 323 325 322 320 317 318 327 328 327 324 322 316 308 309 313 317 327
173 177 179 187 197 198 198 200 212 265 283 281 283 285 286 298 304 303 302 300 313 323 321 320 319 319 324 320 322 315 322 328 327 324 325 328 325 320 317 312 313 318 327
189 189 191 198 200 197 199 220 247 276 287 294 296 293 297 304 306 297 293 297 316 320 319 319 318 325 329 331 314 326 328 327 327 328 326 325 323 317 316 319 317 319 331